Time,TemperatureF,DewpointF,PressureIn,WindDirection,WindDirectionDegrees,WindSpeedMPH,WindSpeedGustMPH,Humidity,HourlyPrecipIn,Conditions,Clouds,dailyrainin,SoftwareType,DateUTC
2013-06-26 04:30:00,57.6,27.1,29.71,SE,135,0.7,0.7,31,0.01,,,0.00,WUHU216HW,2013-06-26 11:30:00,
2013-06-26 04:35:00,57.6,27.1,29.71,SE,135,0.7,0.7,31,0.01,,,0.00,WUHU216HW,2013-06-26 11:35:00,
2013-06-26 05:00:00,57.4,26.3,29.71,SE,135,0.0,0.0,30,0.00,,,0.00,WUHU216HW,2013-06-26 12:00:00,
2013-06-26 05:05:00,57.4,26.3,29.71,SE,135,0.0,0.0,30,0.00,,,0.00,WUHU216HW,2013-06-26 12:05:00,
2013-06-26 05:30:00,57.6,25.5,29.72,WSW,248,1.1,1.1,29,0.00,,,0.00,WUHU216HW,2013-06-26 12:30:00,
2013-06-26 05:35:00,57.6,25.5,29.72,WSW,248,1.1,1.1,29,0.00,,,0.00,WUHU216HW,2013-06-26 12:35:00,
2013-06-26 06:00:00,57.6,23.6,29.72,SE,135,1.1,1.1,27,0.01,,,0.00,WUHU216HW,2013-06-26 13:00:00,
2013-06-26 06:05:00,57.6,23.6,29.72,SE,135,1.1,1.1,27,0.01,,,0.00,WUHU216HW,2013-06-26 13:05:00,
2013-06-26 06:30:00,58.0,23.9,29.73,SE,135,0.0,0.0,27,0.01,,,0.01,WUHU216HW,2013-06-26 13:30:00,
2013-06-26 06:35:00,58.0,23.9,29.73,SE,135,0.0,0.0,27,0.01,,,0.01,WUHU216HW,2013-06-26 13:35:00,
2013-06-26 07:00:00,58.5,21.4,29.74,NW,315,0.0,0.0,24,0.00,,,0.01,WUHU216HW,2013-06-26 14:00:00,
2013-06-26 07:05:00,58.5,21.4,29.74,NW,315,0.0,0.0,24,0.00,,,0.01,WUHU216HW,2013-06-26 14:05:00,
2013-06-26 07:30:00,59.0,21.9,29.74,SE,135,1.1,1.1,24,0.00,,,0.01,WUHU216HW,2013-06-26 14:30:00,
2013-06-26 07:35:00,59.0,21.9,29.74,SE,135,1.1,1.1,24,0.00,,,0.01,WUHU216HW,2013-06-26 14:35:00,
2013-06-26 08:00:00,59.9,20.7,29.75,NNE,23,0.4,0.4,22,0.00,,,0.01,WUHU216HW,2013-06-26 15:00:00,
2013-06-26 08:05:00,59.9,20.7,29.75,NNE,23,0.4,0.4,22,0.00,,,0.01,WUHU216HW,2013-06-26 15:05:00,
2013-06-26 08:30:00,60.1,22.9,29.76,SSE,158,0.0,0.0,24,0.02,,,0.01,WUHU216HW,2013-06-26 15:30:00,
2013-06-26 08:35:00,60.1,22.9,29.76,SSE,158,0.0,0.0,24,0.02,,,0.01,WUHU216HW,2013-06-26 15:35:00,
2013-06-26 09:00:00,61.7,24.2,29.76,SE,135,1.3,1.3,24,0.02,,,0.03,WUHU216HW,2013-06-26 16:00:00,
2013-06-26 09:05:00,61.7,24.2,29.76,SE,135,1.3,1.3,24,0.02,,,0.03,WUHU216HW,2013-06-26 16:05:00,
2013-06-26 09:30:00,62.8,37.5,29.77,SSE,158,0.4,0.4,39,0.00,,,0.03,WUHU216HW,2013-06-26 16:30:00,
2013-06-26 09:35:00,62.8,37.5,29.77,SSE,158,0.4,0.4,39,0.00,,,0.03,WUHU216HW,2013-06-26 16:35:00,
2013-06-26 10:00:00,63.5,37.4,29.78,SE,135,3.1,3.1,38,0.00,,,0.03,WUHU216HW,2013-06-26 17:00:00,
2013-06-26 10:05:00,63.5,37.4,29.78,SE,135,3.1,3.1,38,0.00,,,0.03,WUHU216HW,2013-06-26 17:05:00,
2013-06-26 10:30:00,64.4,45.8,29.79,SE,135,2.7,2.7,51,0.00,,,0.03,WUHU216HW,2013-06-26 17:30:00,
2013-06-26 10:35:00,64.4,45.8,29.79,SE,135,2.7,2.7,51,0.00,,,0.03,WUHU216HW,2013-06-26 17:35:00,
2013-06-26 11:00:00,65.5,51.8,29.79,NW,315,1.1,1.1,61,0.00,,,0.03,WUHU216HW,2013-06-26 18:00:00,
2013-06-26 11:05:00,65.5,51.8,29.79,NW,315,1.1,1.1,61,0.00,,,0.03,WUHU216HW,2013-06-26 18:05:00,
2013-06-26 11:30:00,65.7,53.2,29.81,South,180,1.3,1.3,64,0.00,,,0.03,WUHU216HW,2013-06-26 18:30:00,
2013-06-26 11:35:00,65.7,53.2,29.81,South,180,1.3,1.3,64,0.00,,,0.03,WUHU216HW,2013-06-26 18:35:00,
2013-06-26 12:00:00,66.2,54.1,29.81,SW,225,0.2,0.2,65,0.00,,,0.03,WUHU216HW,2013-06-26 19:00:00,
2013-06-26 12:05:00,66.2,54.1,29.81,SW,225,0.2,0.2,65,0.00,,,0.03,WUHU216HW,2013-06-26 19:05:00,
2013-06-26 12:30:00,66.1,54.7,29.82,SW,225,0.2,0.2,67,0.00,,,0.03,WUHU216HW,2013-06-26 19:30:00,
2013-06-26 13:00:00,65.3,54.6,29.84,SSE,158,2.0,2.0,68,0.00,,,0.03,WUHU216HW,2013-06-26 20:00:00,
2013-06-26 13:30:00,63.7,52.1,29.86,SW,225,2.7,2.7,66,0.00,,,0.03,WUHU216HW,2013-06-26 20:30:00,
2013-06-26 14:00:00,65.5,55.1,29.86,South,180,3.1,3.1,69,0.00,,,0.03,WUHU216HW,2013-06-26 21:00:00,
2013-06-26 14:30:00,66.8,56.7,29.86,WNW,293,5.1,5.1,70,0.00,,,0.03,WUHU216HW,2013-06-26 21:30:00,
2013-06-26 14:35:00,66.8,56.7,29.86,WNW,293,5.1,5.1,70,0.00,,,0.03,WUHU216HW,2013-06-26 21:35:00,
2013-06-26 15:00:00,67.5,57.8,29.86,SSW,203,2.7,2.7,71,0.00,,,0.03,WUHU216HW,2013-06-26 22:00:00,
2013-06-26 15:05:00,67.5,57.8,29.86,SSW,203,2.7,2.7,71,0.00,,,0.03,WUHU216HW,2013-06-26 22:05:00,
2013-06-26 15:30:00,68.4,58.3,29.87,WSW,248,1.3,1.3,70,0.00,,,0.03,WUHU216HW,2013-06-26 22:30:00,
2013-06-26 15:35:00,68.4,58.3,29.87,WSW,248,1.3,1.3,70,0.00,,,0.03,WUHU216HW,2013-06-26 22:35:00,
2013-06-26 16:00:00,68.4,58.3,29.87,West,270,3.6,3.6,70,0.00,,,0.03,WUHU216HW,2013-06-26 23:00:00,
2013-06-26 16:05:00,68.4,58.3,29.87,West,270,3.6,3.6,70,0.00,,,0.03,WUHU216HW,2013-06-26 23:05:00,
2013-06-26 16:30:00,67.5,57.4,29.88,ESE,113,0.2,0.2,70,0.00,,,0.03,WUHU216HW,2013-06-26 23:30:00,
2013-06-26 16:35:00,67.5,57.4,29.88,ESE,113,0.2,0.2,70,0.00,,,0.03,WUHU216HW,2013-06-26 23:35:00,
2013-06-26 17:00:00,68.2,58.2,29.88,West,270,1.3,1.3,70,0.00,,,0.03,WUHU216HW,2013-06-27 00:00:00,
2013-06-26 17:05:00,68.2,58.2,29.88,West,270,1.3,1.3,70,0.00,,,0.03,WUHU216HW,2013-06-27 00:05:00,
2013-06-26 17:30:00,69.1,59.0,29.88,West,270,2.5,2.5,70,0.00,,,0.03,WUHU216HW,2013-06-27 00:30:00,
2013-06-26 17:35:00,69.1,59.0,29.88,West,270,2.5,2.5,70,0.00,,,0.03,WUHU216HW,2013-06-27 00:35:00,
2013-06-26 18:00:00,68.4,58.3,29.88,NW,315,0.9,0.9,70,0.00,,,0.03,WUHU216HW,2013-06-27 01:00:00,
2013-06-26 18:05:00,68.4,58.3,29.88,NW,315,0.9,0.9,70,0.00,,,0.03,WUHU216HW,2013-06-27 01:05:00,
2013-06-26 18:30:00,67.7,57.6,29.89,West,270,0.0,0.0,70,0.00,,,0.03,WUHU216HW,2013-06-27 01:30:00,
2013-06-26 18:35:00,67.7,57.6,29.89,West,270,0.0,0.0,70,0.00,,,0.03,WUHU216HW,2013-06-27 01:35:00,
2013-06-26 19:00:00,66.8,57.1,29.89,SE,135,0.4,0.4,71,0.00,,,0.03,WUHU216HW,2013-06-27 02:00:00,
2013-06-26 19:05:00,66.8,57.1,29.89,SE,135,0.4,0.4,71,0.00,,,0.03,WUHU216HW,2013-06-27 02:05:00,
2013-06-26 19:30:00,66.2,56.2,29.89,ESE,113,0.9,0.9,70,0.00,,,0.03,WUHU216HW,2013-06-27 02:30:00,
2013-06-26 19:35:00,66.2,56.2,29.89,ESE,113,0.9,0.9,70,0.00,,,0.03,WUHU216HW,2013-06-27 02:35:00,
2013-06-26 20:00:00,65.3,54.1,29.89,East,90,0.4,0.4,67,0.00,,,0.03,WUHU216HW,2013-06-27 03:00:00,
2013-06-26 20:05:00,65.3,54.1,29.89,East,90,0.4,0.4,67,0.00,,,0.03,WUHU216HW,2013-06-27 03:05:00,
2013-06-26 20:30:00,64.4,51.9,29.89,SE,135,1.6,1.6,64,0.00,,,0.03,WUHU216HW,2013-06-27 03:30:00,
2013-06-26 20:35:00,64.4,51.9,29.89,SE,135,1.6,1.6,64,0.00,,,0.03,WUHU216HW,2013-06-27 03:35:00,
2013-06-26 21:00:00,63.7,49.6,29.89,ENE,68,0.9,0.9,60,0.00,,,0.03,WUHU216HW,2013-06-27 04:00:00,
2013-06-26 21:01:00,63.7,49.6,29.89,ENE,68,0.9,0.9,60,0.00,,,0.03,WUHU216HW,2013-06-27 04:01:00,
2013-06-26 21:06:00,63.7,49.6,29.89,ENE,68,0.9,0.9,60,0.00,,,0.03,WUHU216HW,2013-06-27 04:06:00,
2013-06-26 21:30:00,62.6,41.4,29.89,SE,135,2.0,2.0,46,0.00,,,0.03,WUHU216HW,2013-06-27 04:30:00,
2013-06-26 21:35:00,62.6,41.4,29.89,SE,135,2.0,2.0,46,0.00,,,0.03,WUHU216HW,2013-06-27 04:35:00,
2013-06-26 22:00:00,62.3,43.9,29.90,SSE,158,0.9,0.9,51,0.00,,,0.03,WUHU216HW,2013-06-27 05:00:00,